{"data":{"norad_id":68711,"intl_designator":"2026-081N","name":"STARLINK-37320","alt_names":[],"object_type":"PAYLOAD","status":"ACTIVE","operator":null,"country":"US","launch_date":"2026-04-14","launch_site_code":"AFETR","launch_vehicle":null,"mission":null,"orbit_class":"UNKNOWN","rcs_meters":null,"size_class":null,"mass_kg":null,"dimensions":null,"purposes":["comms"],"wikipedia_slug":null,"has_3d_model":false,"image_url":null,"decayed_at":null,"tle_current":{"epoch":"2026-05-25T03:30:26.188416Z","epoch_age_seconds":63247,"freshness":"FRESH","line1":"1 68711U 26081N   26145.14613644 -.00434362  00000+0 -88369-2 0  9996","line2":"2 68711  53.1597  39.3189 0001253  81.5396 278.5754 15.47330122  6441","mean_motion":15.47330122,"eccentricity":0.0001253,"inclination_deg":53.1597,"raan_deg":39.3189,"arg_perigee_deg":81.5396,"mean_anomaly_deg":278.5754,"bstar":-0.0088369,"rev_number":644,"period_min":93.063527913405,"perigee_km":423.68768773036,"apogee_km":425.39243860239,"semimajor_km":6802.6770631664,"source":"CELESTRAK","updated_at":"2026-05-25T13:38:22.000207Z"}}}